Probability
0 0 0 0 0 0 0 0 0 0 0 0 0 0 0 0 0 0 0 0 0 0 0 0 0 0 0 0 0 0 0 0 0 0 0 0 0 0 0 0 0 0 0
0 0 0 0 0 0 0 0 0 0 0 0 0 0 0 0 0 0 0 0 0 0 0 0 0 0 0 0 0 0 0 0 0 0 0 0 0 0 0 0 0 0 0
0 0 0 0 0 0 0 0 0 0 0 0 0 0 0 0 0 0 0 0 0 0 0 0 0 0 0 0 0 0 0 0 0 0 0 0 0 0 0 0 0 0 0
0 0 0 0 0 0 0 0 0 0 0 0 0 0 0 0 0 0 0 0 0 0 0 0 0 0 0 0 0 0 0 0 0 0 0 0 0 0 0 0 0 0 0
0 0 0 0 0 0 0 0 0 0 0 0 0 0 0 0 0 0 0 0 0 0 0 0 0 0 0 0 0 0 0 0 0 0 0 0 0 0 0 0 0 0 0
0 0 0 0 0 0 0 0 0 0 0 0 0 0 0 0 0 0 0 0 0 0 0 0 0 0 0 0 0 0 0 0 0 0 0 0 0 0 0 0 0 0 0
0 0 0 0 0 0 0 0 0 0 0 0 0 0 0 0 0 0 0 0 0 0 0 0 0 0 0 0 0 0 0 0 0 0 0 0 0 0 0 0 0 0 0
0 0 0 0 0 0 0 0 0 0 0 0 0 0 0 0 0 0 0 0 0 0 0 0 0 0 0 0 0 0 0 0 0 0 0 0 0 0 0 0 0 0 0
0 0 0 0 0 0 0 0 0 0 0 0 0 0 0 0 0 0 0 0 0 0 0 0 0 0 0 0 0 0 0 0 0 0 0 0 0 0 0 0 0 0 0
0 0 0 0 0 0 0 0 0 0 0 0 0 0 0 0 0 0 0 0 0 0 0 0 0 0 0 0 0 0 0 0 0 0 0 0 0 0 0 0 0 0 0
0 0 0 0 0 0 0 0 0 0 0 0 0 0 0 0 0 0 0 0 0 0 0 0 0 0 0 0 0 0 0 0 0 0 0 0 0 0 0 0 0 0 0
0 0 0 0 0 0 0 0 0 0 0 0 0 0 0 0 0 0 0 0 0 0 0 0 0 0 0 0 0 0 0 0 0 0 0 0 0 0 0 0 0 0 0
0 0 0 0 0 0 0 0 0 0 0 0 0 0 0 0 0 0 0 0 0 0 0 0 0 0 0 0 0 0 0 0 0 0 0 0 0 0 0 0 0 0 0
0 0 0 0 0 0 0 0 0 0 0 0 0 0 0 0 0 0 0 0 0 0 0 0 0 0 0 0 0 0 0 0 0 0 0 0 0 0 0 0 0 0 0
0 0 0 0 0 0 0 0 0 0 0 0 0 0 0 0 0 0 0 0 0 0 0 0 0 0 0 0 0 0 0 0 0 0 0 0 0 0 0 0 0 0 0
0 0 0 0 0 0 0 0 0 0 0 0 0 0 0 0 0 0 0 0 0 0 0 0 0 0 0 0 0 0 0 0 0 0 0 0 0 0 0 0 0 0 0
0 0 0 0 0 0 0 0 0 0 0 0 0 0 0 0 0 0 0 0 0 0 0 0 0 0 0 0 0 0 0 0 0 0 0 0 0 0 0 0 0 0 0
0 0 0 0 0 0 0 0 0 0 0 0 0 0 0 0 0 0 0 0 0 0 0 0 0 0 0 0 0 0 0 0 0 0 0 0 0 0 0 0 0 0 0
0 0 0 0 0 0 0 0 0 0 0 0 0 0 0 0 0 0 0 0 0 0 0 0 0 0 0 0 0 0 0 0 0 0 0 0 0 0 0 0 0 0 0
0 0 0 0 0 0 0 0 0 0 0 0 0 0 0 0 0 0 0 0 0 0 0 0 0 0 0 0 0 0 0 0 0 0 0 0 0 0 0 0 0 0 0
0 0 0 0 0 0 0 0 0 0 0 0 0 0 0 0 0 0 0 0 0 0 0 0 0 0 0 0 0 0 0 0 0 0 0 0 0 0 0 0 0 0 0
0 0 0 0 0 0 0 0 0 0 0 0 0 0 0 0 0 0 0 0 0 0 0 0 0 0 0 0 0 0 0 0 0 0 0 0 0 0 0 0 0 0 0
0 0 0 0 0 0 0 0 0 0 0 0 0 0 0 0 0 0 0 0 0 0 0 0 0 0 0 0 0 0 0 0 0 0 0 0 0 0 0 0 0 0 0
0 0 0 0 0 0 0 0 0 0 0 0 0 0 0 0 0 0 0 0 0 0 0 0 0 0 0 0 0 0 0 0 0 0 0 0 0 0 0 0 0 0 0
0 0 0 0 0 0 0 0 0 0 0 0 0 0 0 0 0 0 0 0 0 0 0 0 0 0 0 0 0 0 0 0 0 0 0 0 0 0 0 0 0 0 0
0 0 0 0 0 0 0 0 0 0 0 0 0 0 0 0 0 0 0 0 0 0 0 0 0 0 0 0 0 0 0 0 0 0 0 0 0 0 0 0 0 0 0
Wind_Speed
6 8 17 17 16 14 14 13 13 12 12 13 12 12 12 12 11 11 11 11 11 11 12 12 12 13 13 14 14 13 14 14 15 16 16 15 15 15 15 14 13 9 15
11 12 19 18 17 15 14 14 13 12 12 12 11 11 11 11 11 11 11 11 11 11 11 12 12 12 12 12 12 12 12 13 13 14 15 13 13 14 14 14 13 9 14
13 13 16 19 18 16 15 14 13 12 12 11 11 11 11 10 10 10 10 10 10 10 11 11 11 11 11 11 10 11 12 12 12 13 13 8 8 12 13 13 13 13 13
15 12 12 19 18 17 16 15 14 13 12 11 11 10 10 10 10 10 10 10 10 10 10 10 10 10 10 10 10 10 11 12 12 12 7 7 6 10 11 11 12 12 12
13 11 14 21 19 18 16 15 14 13 12 11 11 10 10 9 9 9 9 9 9 9 9 9 9 9 9 9 9 9 10 12 12 9 6 6 6 8 10 10 10 10 10
12 11 13 21 20 18 17 16 15 14 13 12 11 10 9 9 9 8 8 8 8 8 8 8 8 8 8 7 7 8 9 11 9 5 5 5 5 7 8 8 8 8 8
12 10 12 21 20 19 18 16 15 14 13 12 11 10 9 9 8 8 7 6 6 6 6 6 6 6 6 6 6 6 7 8 5 4 4 4 5 6 6 6 6 6 7
13 11 11 21 20 19 18 17 16 15 13 12 11 10 9 9 8 7 6 6 5 5 4 4 4 4 4 4 5 5 5 6 5 4 3 3 4 4 4 5 5 5 5
10 10 8 11 14 18 17 17 16 15 14 13 12 11 9 8 8 7 7 6 5 4 3 2 2 2 2 2 2 3 3 4 3 2 2 2 4 4 4 3 3 4 4
8 9 8 8 8 8 10 15 15 15 14 13 11 10 9 9 8 7 7 6 6 5 4 3 2 1 1 2 2 3 3 3 2 2 2 4 7 6 6 5 5 5 5
8 8 8 8 8 7 7 10 12 13 13 12 10 10 8 4 3 4 6 8 7 6 5 5 4 4 3 4 5 5 3 0 2 2 2 7 9 9 9 9 9 9 9
10 10 8 9 8 7 7 6 5 6 6 6 5 6 4 4 3 4 7 10 9 8 7 6 6 6 4 1 4 6 2 3 2 3 4 10 11 11 11 11 11 12 12
10 11 10 10 9 8 6 5 3 3 4 4 6 6 5 4 3 3 2 4 5 5 3 4 4 2 2 2 3 3 4 3 3 3 5 12 13 14 14 14 14 14 14
8 11 11 10 9 9 6 5 4 4 3 3 5 6 4 3 3 3 3 3 3 2 3 3 2 4 4 4 5 5 5 4 4 3 5 14 15 16 17 17 17 17 17
9 10 11 11 10 9 7 5 5 5 5 5 4 5 5 4 4 4 3 3 4 3 3 4 4 4 5 5 5 5 6 6 6 5 5 14 16 17 19 19 19 19 19
8 9 9 11 10 9 7 6 5 5 5 5 5 6 6 5 4 4 4 4 4 4 4 4 5 5 4 4 5 5 6 6 6 6 6 9 16 19 20 21 21 21 21
6 7 8 10 9 9 8 7 5 5 5 4 4 5 6 5 5 5 4 4 4 4 4 3 4 3 3 4 5 5 5 5 6 6 6 5 7 14 20 22 22 22 22
5 6 7 8 8 8 7 6 4 4 4 3 3 3 4 5 5 4 3 3 3 3 2 2 3 2 3 3 4 4 4 4 6 6 6 6 5 6 12 20 22 23 23
6 7 6 7 8 7 6 5 4 4 3 2 2 2 3 3 3 3 3 3 2 2 2 2 2 2 3 4 4 4 4 4 6 6 7 7 7 7 6 13 20 22 23
5 6 7 7 7 7 5 4 3 3 2 2 2 2 2 2 2 2 2 2 2 1 1 1 2 2 2 3 4 5 5 6 5 6 7 6 6 7 6 7 8 11 19
5 6 6 7 6 5 4 4 3 2 1 1 1 1 1 1 1 1 1 1 1 1 2 2 2 2 2 1 2 4 5 5 5 5 5 5 6 6 6 6 5 5 7
5 6 6 6 6 5 4 3 3 3 2 1 1 1 1 1 1 1 2 1 1 1 2 2 1 1 2 1 1 3 5 5 4 4 3 4 5 4 4 5 5 5 5
5 5 6 6 6 5 5 4 4 3 3 2 2 1 1 0 0 1 1 1 1 1 2 2 2 3 3 2 2 2 3 4 4 4 4 4 4 4 4 4 6 6 7
4 5 6 6 6 6 6 5 5 3 2 1 0 0 1 1 1 0 0 1 1 1 2 3 2 2 3 3 2 3 5 4 4 5 3 4 5 6 6 6 6 7 7
5 5 5 6 6 5 5 6 6 4 2 1 1 1 2 2 2 1 1 0 1 1 2 3 3 3 2 3 3 3 3 3 5 6 9 5 4 5 5 6 7 7 8
5 5 5 6 5 5 6 5 6 5 4 3 1 1 1 1 2 2 1 1 1 2 3 3 3 4 3 4 4 3 4 4 4 5 8 9 8 6 6 6 7 7 7
Wind_Direction
190 184 176 164 160 156 151 143 134 126 120 114 110 106 103 99 95 90 86 81 76 72 70 67 64 63 64 64 63 62 62 58 55 51 49 55 62 63 63 61 53 43 53
163 173 173 166 163 160 154 146 138 131 125 119 115 111 108 103 99 94 89 85 80 76 72 70 67 65 64 65 65 64 64 63 61 54 47 39 52 60 59 57 57 54 54
153 168 170 167 165 162 156 150 144 137 131 127 122 117 113 108 104 99 93 88 82 79 75 72 70 68 66 66 66 64 62 62 65 57 43 21 29 58 58 56 56 56 55
156 165 166 169 167 165 160 155 151 145 140 135 131 126 120 115 110 104 97 92 86 81 78 76 74 72 69 67 66 63 60 60 64 56 34 20 13 54 56 55 55 54 53
158 163 169 169 169 167 163 159 156 152 148 143 139 135 129 122 115 108 102 96 92 87 82 80 77 76 72 69 66 60 59 63 62 51 30 19 7 50 54 52 50 50 50
158 162 171 170 171 169 166 163 161 158 155 150 147 143 137 129 121 113 108 103 98 94 89 84 80 76 72 70 66 59 58 63 57 42 31 17 360 45 53 50 50 47 45
159 164 173 172 173 171 169 168 166 164 162 157 155 152 147 140 133 126 121 115 108 100 94 89 85 79 72 68 63 55 52 57 60 46 32 11 356 35 44 40 37 37 36
160 166 172 175 175 174 173 172 171 170 169 165 164 162 158 152 147 143 139 133 127 118 106 95 88 84 76 65 56 46 42 44 48 36 14 350 349 12 27 25 15 13 16
160 164 172 175 176 177 176 176 176 176 175 173 173 171 168 166 166 164 161 159 156 148 138 124 103 87 68 46 30 21 21 29 52 5 334 316 306 320 337 341 333 332 333
161 167 169 171 170 172 176 179 179 180 180 179 180 176 175 178 183 183 177 183 184 186 187 192 207 240 287 308 318 323 333 10 9 324 300 278 281 290 293 294 293 292 292
166 172 170 170 170 168 171 181 180 182 184 183 183 179 177 175 181 190 188 200 205 208 215 225 238 253 265 278 288 292 307 292 290 282 274 272 277 283 285 284 283 282 280
179 181 177 175 171 168 177 176 176 177 181 178 171 176 169 170 185 193 204 212 217 219 228 241 251 262 272 272 286 291 284 256 254 258 260 271 278 283 284 283 281 279 278
181 180 181 180 175 173 174 169 172 171 172 175 177 176 174 176 186 198 204 224 224 222 226 255 275 271 246 239 252 260 253 249 245 251 259 270 278 284 285 285 282 280 278
179 186 182 180 177 178 173 172 173 173 177 180 185 184 178 180 192 193 198 205 202 202 209 226 240 250 251 249 246 250 251 244 244 245 256 266 274 282 286 286 285 283 281
185 184 182 180 179 176 173 176 178 180 183 185 188 190 184 186 198 199 201 199 203 204 210 221 231 242 247 252 250 245 247 246 247 246 255 264 272 279 283 284 284 283 283
186 181 175 177 175 170 172 174 177 181 184 187 193 196 191 190 194 195 204 204 208 210 214 218 224 230 236 241 251 247 244 246 248 248 245 261 270 277 282 284 284 284 284
179 167 166 170 167 165 167 170 172 179 180 188 196 199 196 192 194 196 202 207 213 214 219 226 234 233 240 243 251 255 252 250 253 256 255 251 262 274 279 283 284 284 284
153 151 156 157 156 159 159 159 158 162 166 180 186 191 198 198 196 196 202 214 217 209 213 227 237 246 252 255 260 263 262 263 262 261 260 257 253 259 273 280 283 284 284
141 141 138 137 145 148 142 136 134 137 143 152 155 165 183 190 190 188 202 217 216 214 226 241 243 240 259 268 270 270 266 264 265 268 267 265 260 258 257 275 281 283 285
116 122 123 123 129 127 119 109 99 95 104 108 128 153 167 182 189 187 202 219 211 212 239 246 257 257 257 268 284 284 273 265 262 262 267 273 273 269 266 266 275 282 284
101 110 117 120 126 125 119 120 117 116 99 82 92 125 151 174 182 180 201 220 203 216 240 250 259 277 278 279 306 303 286 273 271 267 267 273 277 278 279 274 270 267 282
115 114 116 121 125 127 125 124 123 121 109 103 58 56 77 122 152 169 190 210 215 229 259 262 247 269 275 249 255 313 318 322 320 281 273 266 269 282 289 289 285 276 271
130 135 129 126 123 121 119 107 88 71 54 42 24 360 348 34 128 168 193 201 225 218 250 259 245 238 266 274 199 217 278 285 303 282 270 266 277 281 281 284 281 278 275
150 137 127 124 120 120 119 122 127 131 144 182 197 311 340 5 10 5 178 193 233 239 256 263 249 235 235 265 266 227 228 243 279 299 286 277 275 273 272 277 279 277 273
148 140 132 124 119 119 118 126 124 124 139 126 77 49 9 357 0 5 35 42 312 285 277 276 277 258 232 240 246 250 257 254 236 263 286 285 280 261 259 262 266 269 270
144 140 137 130 127 127 124 128 134 140 141 128 112 82 356 342 345 348 354 345 300 285 277 273 269 267 256 252 251 241 240 248 253 252 275 287 283 271 255 252 257 260 262